Location: Montreal
(45.5000°N, 73.5833°W)
Time: 01:14:07
(UTC-04:00)

Tiangong 2 - Pass Details

Date: 13 October 2017
Orbit: 388 x 392 km, 42.8° (Epoch: 19 October)

Event Time Altitude Azimuth Distance (km) Brightness Sun altitude
Exits shadow 05:53:32 26° 241° (WSW) 813 2.2 -13.9°
Maximum altitude 05:55:03 51° 176° (S) 499 1.6 -13.6°
Drops below altitude 10° 05:58:10 10° 100° (E) 1,422 5.3 -13.1°
Sets 06:00:17 0° 95° (E) 2,279 7.0 -12.7°
